Weather in Itlar

Russia / Yaroslavl Oblast     56°51′34″N   39°17′17″E
temp.,
°C
wind,
m/s
gust,
m/s
humid.,
%
clouds,
%
prec.,
mm/h
press.,
hPa
HPBL,
m
25 february, thu
thu2500:00−14s61094100 0.6 1026410
03:00−13ssw61195100 2.4 1023349
06:00−11ssw71294100 2.8 1016417
09:00−5sw5995100 4.1 1012343
12:00+1wnw411100100 0.6 1010362
15:00+2wnw613100100 0.8 1011443
18:00+1wnw51198100 0.0 1011481
21:00+1wnw51098100 0.0 1012452
26 february, fri
fri2600:000wsw3598100 0.0 1011134
03:00+1ssw23100100 0.4 101064
06:00+1sw47100100 1.0 1007167
09:00+2wsw512100100 2.5 1004332
12:00+2wsw614100100 2.8 1001430
15:00+2w71799100 4.6 999621
18:00+2w81688100 0.0 998814
21:00+1w9159598 0.1 998900
27 february, sat
sat2700:00+1wnw81497100 0.9 997898
03:000wnw81596100 1.1 998862
06:00−7nnw71394100 1.3 999652
09:00−11nnw61091100 1.6 1002626
12:00−10n6989100 0.1 1005636
15:00−9n6989100 0.1 1008639
18:00−11nnw4993100 0.1 1010428
21:00−12nnw4995100 0.1 1012347
28 february, sun
sun2800:00−14nnw369798 0.0 1014144
03:00−14nnw369687 0.1 1015133
06:00−13nw369691 0.1 1016160
09:00−11nnw369491 0.2 1017326
12:00−7nnw479198 0.1 1017620
15:00−5nnw589099 0.3 1018757
18:00−6nnw4893100 0.1 1019384
21:00−7nnw3795100 0.1 1021210
1 march, mon
mon100:00−8nw369699 0.1 1022172
03:00−6nw2495100 0.1 1023139
06:00−7wnw2296100 0.1 102475
09:00−6wsw2295100 0.1 1024139
12:00−3w4587100 0.1 1024666
15:00−2wsw478994 0.1 1023620
18:00−2wsw5109499 0.1 1021465
21:00−1wsw6119499 0.2 1019482